�������l�o���
Date,Time,MP-1(��Sv/h),MP-2(��Sv/h),MP-3(��Sv/h),MP-4(��Sv/h),MP-5(��Sv/h),MP-6(��Sv/h),MP-7(��Sv/h),MP-8(��Sv/h),����,����(m/s),���J
2020/01/28,00:00,0.702,1.006,0.665,1.261,0.886,0.401,0.706,0.670,���k��,5.2,��
2020/01/28,00:10,0.706,1.010,0.664,1.263,0.886,0.401,0.705,0.671,�k��,5.6,��
2020/01/28,00:20,0.703,1.007,0.665,1.264,0.889,0.402,0.704,0.669,�k��,5.2,��
2020/01/28,00:30,0.702,1.008,0.664,1.263,0.887,0.401,0.704,0.670,���k��,5.0,��
2020/01/28,00:40,0.704,1.006,0.665,1.263,0.888,0.401,0.705,0.670,���k��,4.9,��
2020/01/28,00:50,0.704,1.009,0.664,1.262,0.890,0.401,0.704,0.670,�k��,4.5,��
2020/01/28,01:00,0.704,1.008,0.663,1.265,0.887,0.400,0.705,0.670,�k��,3.2,��
2020/01/28,01:10,0.705,1.009,0.664,1.263,0.887,0.400,0.705,0.671,���k��,4.3,��
2020/01/28,01:20,0.705,1.009,0.664,1.263,0.889,0.403,0.703,0.670,���k��,4.4,��
2020/01/28,01:30,0.706,1.007,0.665,1.264,0.889,0.402,0.702,0.670,�k��,4.4,��
2020/01/28,01:40,0.705,1.008,0.665,1.263,0.889,0.401,0.705,0.672,���k��,4.7,��
2020/01/28,01:50,0.704,1.007,0.665,1.261,0.888,0.401,0.703,0.672,�k��,4.9,�L
2020/01/28,02:00,0.705,1.010,0.666,1.261,0.888,0.399,0.704,0.670,�k�k��,3.8,�L
2020/01/28,02:10,0.706,1.009,0.664,1.262,0.889,0.401,0.705,0.670,�k��,6.3,�L
2020/01/28,02:20,0.705,1.008,0.663,1.262,0.891,0.401,0.706,0.671,�k��,5.5,�L
2020/01/28,02:30,0.704,1.008,0.663,1.265,0.891,0.403,0.704,0.670,�k��,6.4,�L
2020/01/28,02:40,0.706,1.007,0.664,1.265,0.888,0.400,0.704,0.670,�k�k��,6.0,�L
2020/01/28,02:50,0.704,1.011,0.664,1.263,0.890,0.403,0.705,0.670,�k�k��,5.2,��
2020/01/28,03:00,0.704,1.008,0.663,1.265,0.890,0.402,0.706,0.671,�k��,4.9,�L
2020/01/28,03:10,0.703,1.007,0.664,1.266,0.889,0.402,0.705,0.669,�k��,5.6,�L
2020/01/28,03:20,0.705,1.010,0.663,1.264,0.887,0.404,0.704,0.670,���k��,6.3,�L
2020/01/28,03:30,0.703,1.004,0.663,1.263,0.887,0.402,0.704,0.669,���k��,4.7,�L
2020/01/28,03:40,0.701,1.003,0.663,1.262,0.883,0.402,0.703,0.670,���k��,6.1,�L
2020/01/28,03:50,0.703,1.002,0.664,1.262,0.885,0.405,0.703,0.668,�k��,5.6,�L
2020/01/28,04:00,0.701,1.001,0.664,1.261,0.883,0.403,0.701,0.669,���k��,5.8,�L
2020/01/28,04:10,0.701,0.998,0.664,1.259,0.882,0.402,0.702,0.667,�k��,5.0,�L
2020/01/28,04:20,0.699,0.997,0.661,1.258,0.881,0.402,0.703,0.669,�k��,5.8,�L
2020/01/28,04:30,0.698,0.998,0.663,1.261,0.880,0.403,0.701,0.667,�k��,7.4,�L
2020/01/28,04:40,0.700,0.998,0.662,1.257,0.880,0.402,0.701,0.668,�k��,7.5,�L
2020/01/28,04:50,0.697,0.993,0.661,1.255,0.881,0.403,0.701,0.669,�k��,8.8,�L
2020/01/28,05:00,0.697,0.996,0.659,1.256,0.878,0.401,0.703,0.669,�k��,7.4,�L
2020/01/28,05:10,0.697,0.995,0.662,1.256,0.881,0.403,0.703,0.667,�k��,7.4,�L
2020/01/28,05:20,0.697,0.993,0.660,1.257,0.878,0.402,0.704,0.668,�k��,7.7,�L
2020/01/28,05:30,0.697,0.994,0.657,1.255,0.880,0.401,0.704,0.667,�k�k��,8.0,�L
2020/01/28,05:40,0.695,0.994,0.658,1.257,0.879,0.401,0.703,0.668,�k�k��,7.8,�L
2020/01/28,05:50,0.697,0.996,0.658,1.257,0.879,0.402,0.704,0.667,�k�k��,7.1,�L
2020/01/28,06:00,0.698,0.994,0.658,1.256,0.876,0.403,0.700,0.667,�k�k��,7.1,�L
2020/01/28,06:10,0.700,0.988,0.657,1.255,0.873,0.403,0.700,0.667,�k�k��,6.9,�L
2020/01/28,06:20,0.698,0.987,0.657,1.252,0.874,0.403,0.699,0.668,�k�k��,6.7,�L
2020/01/28,06:30,0.698,0.986,0.658,1.249,0.872,0.403,0.701,0.665,�k�k��,7.1,�L
2020/01/28,06:40,0.694,0.984,0.656,1.248,0.871,0.402,0.699,0.666,�k�k��,6.4,�L
2020/01/28,06:50,0.693,0.983,0.656,1.248,0.866,0.403,0.697,0.666,�k�k��,7.4,�L
2020/01/28,07:00,0.694,0.980,0.656,1.246,0.867,0.401,0.698,0.667,�k��,7.4,�L
2020/01/28,07:10,0.692,0.979,0.656,1.245,0.866,0.404,0.697,0.665,�k��,7.7,�L
2020/01/28,07:20,0.694,0.977,0.656,1.242,0.865,0.402,0.699,0.667,�k��,8.2,�L
2020/01/28,07:30,0.693,0.976,0.654,1.242,0.863,0.404,0.698,0.666,�k��,8.2,�L
2020/01/28,07:40,0.690,0.974,0.653,1.239,0.864,0.403,0.696,0.666,�k��,8.2,�L
2020/01/28,07:50,0.691,0.973,0.654,1.235,0.863,0.403,0.696,0.665,�k��,8.0,�L
2020/01/28,08:00,0.691,0.972,0.652,1.236,0.862,0.402,0.696,0.665,�k��,7.4,�L
2020/01/28,08:10,0.692,0.974,0.652,1.235,0.861,0.403,0.698,0.664,�k��,8.5,�L
2020/01/28,08:20,0.689,0.972,0.652,1.236,0.860,0.402,0.696,0.664,�k��,8.3,�L
2020/01/28,08:30,0.691,0.970,0.653,1.235,0.860,0.401,0.697,0.664,�k�k��,8.8,�L
2020/01/28,08:40,0.690,0.967,0.650,1.233,0.859,0.399,0.693,0.664,�k��,9.4,�L
2020/01/28,08:50,0.691,0.966,0.650,1.229,0.858,0.400,0.692,0.663,�k��,8.2,�L
2020/01/28,09:00,0.690,0.966,0.651,1.230,0.855,0.400,0.693,0.664,�k��,9.7,�L
2020/01/28,09:10,0.689,0.967,0.650,1.230,0.857,0.400,0.688,0.663,�k��,8.2,�L
2020/01/28,09:20,0.687,0.963,0.650,1.231,0.856,0.400,-,0.664,�k��,8.0,�L
2020/01/28,09:30,0.686,0.961,0.649,1.228,0.855,0.400,-,0.665,�k��,6.9,�L
2020/01/28,09:40,0.689,0.960,0.651,1.227,0.857,0.401,-,0.662,�k��,6.4,�L
2020/01/28,09:50,0.688,0.962,0.650,1.227,0.855,0.401,-,0.662,�k��,6.9,�L
2020/01/28,10:00,0.688,0.960,0.649,1.225,0.853,0.401,-,0.663,���k��,9.1,�L
2020/01/28,10:10,0.689,0.962,0.647,1.223,0.854,0.400,-,0.661,���k��,7.4,�L
2020/01/28,10:20,0.688,0.958,0.649,1.223,0.855,0.402,-,0.664,���k��,6.9,�L
2020/01/28,10:30,0.689,0.960,0.652,1.224,0.856,0.402,-,0.662,���k��,6.6,�L
2020/01/28,10:40,0.691,0.960,0.651,1.223,0.857,0.402,-,0.662,���k��,7.7,�L
2020/01/28,10:50,0.690,0.962,0.651,1.223,0.854,0.400,-,0.663,���k��,8.2,�L
2020/01/28,11:00,0.690,0.961,0.650,1.224,0.853,0.402,-,0.662,���k��,8.9,�L
2020/01/28,11:10,0.688,0.960,0.650,1.221,0.853,0.401,-,0.663,���k��,9.1,�L
2020/01/28,11:20,0.688,0.961,0.648,1.220,0.853,0.401,-,0.663,���k��,7.8,�L
2020/01/28,11:30,0.687,0.959,0.648,1.218,0.852,0.400,-,0.661,���k��,6.3,�L
2020/01/28,11:40,0.688,0.961,0.646,1.213,0.850,0.399,0.688,0.660,�k��,6.1,�L
2020/01/28,11:50,0.687,0.958,0.647,1.213,0.849,0.400,0.689,0.660,���k��,6.7,�L
2020/01/28,12:00,0.687,0.960,0.646,1.211,0.852,0.400,0.690,0.660,���k��,8.8,�L
2020/01/28,12:10,0.688,0.960,0.646,-,0.850,0.400,0.691,0.660,���k��,9.4,�L
2020/01/28,12:20,0.687,0.960,0.646,-,0.850,0.399,0.689,0.662,���k��,10.4,�L
2020/01/28,12:30,0.687,0.961,0.647,-,0.851,0.400,0.691,0.660,���k��,9.7,�L
2020/01/28,12:40,0.687,0.959,0.646,-,0.848,0.398,0.690,0.659,���k��,9.6,�L
2020/01/28,12:50,0.687,0.960,0.646,1.209,0.848,0.399,0.693,0.659,���k��,7.4,�L
2020/01/28,13:00,0.686,0.959,0.646,1.209,0.851,0.401,0.692,0.662,���k��,9.1,�L
2020/01/28,13:10,0.685,0.958,0.643,1.210,0.849,0.397,0.693,0.660,���k��,9.6,�L
2020/01/28,13:20,0.686,0.956,0.645,1.212,0.848,0.399,0.692,0.660,���k��,8.6,�L
2020/01/28,13:30,0.685,0.958,0.645,1.210,0.848,0.399,0.693,0.659,���k��,8.8,�L
2020/01/28,13:40,0.686,0.958,0.647,1.210,0.847,0.398,0.693,0.662,���k��,7.8,�L
2020/01/28,13:50,0.685,0.956,0.646,1.213,0.845,0.400,0.692,0.661,���k��,9.1,�L
2020/01/28,14:00,0.684,0.959,0.645,1.210,0.848,0.399,0.690,0.660,���k��,8.6,�L
2020/01/28,14:10,0.685,0.959,0.645,1.212,0.847,0.398,0.693,0.659,���k��,8.9,�L
2020/01/28,14:20,0.684,0.959,0.644,1.201,0.847,0.398,0.693,0.659,���k��,8.2,�L
2020/01/28,14:30,0.684,0.960,0.646,1.210,0.847,0.397,0.693,0.661,���k��,9.9,�L
2020/01/28,14:40,0.685,0.960,0.644,1.208,0.848,0.397,0.694,0.659,���k��,6.4,�L
2020/01/28,14:50,0.684,0.959,0.643,1.209,0.850,0.396,0.693,0.662,���k��,10.2,��
2020/01/28,15:00,0.686,0.959,0.645,1.206,0.848,0.398,0.693,0.661,���k��,8.0,�L
2020/01/28,15:10,0.683,0.959,0.644,1.203,0.852,0.398,0.693,0.661,���k��,9.3,�L
2020/01/28,15:20,0.685,0.959,0.645,1.208,0.849,0.398,0.693,0.660,���k��,7.7,�L
2020/01/28,15:30,0.685,0.962,0.644,1.205,0.851,0.398,0.694,0.660,���k��,9.6,�L
2020/01/28,15:40,0.686,0.958,0.645,1.211,0.851,0.400,0.694,0.660,���k��,7.4,�L
2020/01/28,15:50,0.688,0.960,0.645,1.209,0.850,0.400,0.695,0.661,���k��,6.6,�L
2020/01/28,16:00,0.688,0.961,0.647,1.208,0.852,0.402,0.694,0.661,���k��,7.7,�L
2020/01/28,16:10,0.689,0.963,0.646,1.210,0.854,0.401,0.695,0.659,���k��,7.7,�L
2020/01/28,16:20,0.691,0.963,0.649,1.216,0.853,0.404,0.695,0.661,���k��,8.9,�L
2020/01/28,16:30,0.691,0.964,0.650,1.220,0.853,0.403,0.696,0.662,���k��,6.9,�L
2020/01/28,16:40,0.689,0.965,0.648,1.219,0.855,0.404,0.694,0.662,���k��,9.6,�L
2020/01/28,16:50,0.690,0.966,0.647,1.217,0.855,0.403,0.695,0.661,���k��,7.7,�L
2020/01/28,17:00,0.690,0.966,0.646,1.217,0.854,0.403,0.695,0.662,���k��,9.4,�L
2020/01/28,17:10,0.689,0.966,0.648,1.218,0.852,0.402,0.697,0.662,���k��,9.6,�L
2020/01/28,17:20,0.691,0.965,0.647,1.218,0.853,0.402,0.694,0.660,���k��,10.2,�L
2020/01/28,17:30,0.689,0.966,0.647,1.217,0.851,0.400,0.694,0.661,���k��,8.2,�L
2020/01/28,17:40,0.688,0.966,0.645,1.218,0.851,0.400,0.695,0.660,���k��,8.0,�L
2020/01/28,17:50,0.687,0.965,0.644,1.218,0.851,0.399,0.695,0.661,���k��,9.7,�L
2020/01/28,18:00,0.685,0.966,0.645,1.218,0.852,0.399,0.693,0.659,�k��,6.4,�L
2020/01/28,18:10,0.686,0.963,0.644,1.217,0.850,0.398,0.693,0.661,���k��,8.6,�L
2020/01/28,18:20,0.687,0.965,0.644,1.217,0.849,0.397,0.694,0.660,���k��,9.6,�L
2020/01/28,18:30,0.686,0.964,0.643,1.217,0.848,0.397,0.693,0.658,���k��,8.5,�L
2020/01/28,18:40,0.686,0.961,0.643,1.217,0.847,0.398,0.691,0.660,���k��,7.8,�L
2020/01/28,18:50,0.685,0.960,0.642,1.214,0.847,0.397,0.692,0.658,���k��,7.4,�L
2020/01/28,19:00,0.686,0.958,0.643,1.214,0.846,0.398,0.691,0.658,���k��,7.7,�L
2020/01/28,19:10,0.684,0.958,0.643,1.213,0.843,0.398,0.692,0.658,�k��,7.7,�L
2020/01/28,19:20,0.683,0.958,0.645,1.212,0.845,0.399,0.691,0.660,���k��,8.3,�L
2020/01/28,19:30,0.685,0.956,0.645,1.213,0.844,0.397,0.694,0.660,���k��,8.9,�L
2020/01/28,19:40,0.686,0.958,0.645,1.211,0.846,0.398,0.690,0.659,���k��,8.5,�L
2020/01/28,19:50,0.684,0.958,0.644,1.211,0.846,0.398,0.691,0.660,���k��,7.4,�L
2020/01/28,20:00,0.686,0.959,0.644,1.211,0.845,0.398,0.690,0.660,���k��,7.7,�L
2020/01/28,20:10,0.686,0.960,0.646,1.210,0.847,0.399,0.692,0.660,���k��,8.8,�L
2020/01/28,20:20,0.687,0.958,0.644,1.210,0.846,0.400,0.691,0.659,���k��,7.7,�L
2020/01/28,20:30,0.685,0.957,0.644,1.209,0.845,0.399,0.692,0.658,�k��,6.1,�L
2020/01/28,20:40,0.686,0.955,0.644,1.208,0.845,0.400,0.691,0.659,���k��,7.5,�L
2020/01/28,20:50,0.685,0.957,0.643,1.206,0.843,0.398,0.691,0.658,���k��,8.8,�L
2020/01/28,21:00,0.686,0.956,0.643,1.208,0.845,0.398,0.692,0.658,�k��,8.3,�L
2020/01/28,21:10,0.682,0.956,0.644,1.207,0.844,0.399,0.689,0.658,�k��,9.9,�L
2020/01/28,21:20,0.685,0.957,0.642,1.204,0.843,0.397,0.690,0.657,�k��,7.7,�L
2020/01/28,21:30,0.684,0.958,0.641,1.206,0.842,0.398,0.691,0.658,�k��,9.3,�L
2020/01/28,21:40,0.683,0.956,0.643,1.204,0.839,0.398,0.689,0.657,�k��,7.7,�L
2020/01/28,21:50,0.681,0.953,0.642,1.201,0.837,0.397,0.687,0.656,�k��,7.7,�L
2020/01/28,22:00,0.682,0.952,0.641,1.198,0.839,0.396,0.687,0.656,�k��,8.0,�L
2020/01/28,22:10,0.680,0.956,0.642,1.201,0.838,0.397,0.686,0.655,�k��,5.8,�L
2020/01/28,22:20,0.681,0.950,0.638,1.198,0.833,0.396,0.686,0.654,���k��,8.9,�L
2020/01/28,22:30,0.679,0.950,0.642,1.193,0.834,0.399,0.686,0.655,���k��,7.2,�L
2020/01/28,22:40,0.680,0.950,0.642,1.193,0.835,0.398,0.686,0.654,�k��,8.0,�L
2020/01/28,22:50,0.681,0.951,0.641,1.195,0.835,0.398,0.685,0.655,���k��,8.8,�L
2020/01/28,23:00,0.682,0.949,0.641,1.192,0.835,0.398,0.688,0.656,�k��,8.3,�L
2020/01/28,23:10,0.682,0.952,0.640,1.193,0.836,0.398,0.685,0.655,���k��,8.9,�L
2020/01/28,23:20,0.681,0.952,0.641,1.193,0.836,0.396,0.686,0.655,�k��,6.9,�L
2020/01/28,23:30,0.682,0.950,0.639,1.192,0.834,0.398,0.687,0.654,�k��,8.8,�L
2020/01/28,23:40,0.680,0.949,0.640,1.191,0.834,0.397,0.684,0.656,���k��,10.1,�L
2020/01/28,23:50,0.681,0.950,0.639,1.192,0.834,0.397,0.685,0.655,�k��,7.7,�L
